This is the latest recevied weather packets stored in our database for station/object F5OZP-13. If no packets are shown the sender has not sent any weather packets the latest 10 day(s).
| Time | Temp. | Humidity | Pressure | Rain* | Wind** | Luminosity | Snow |
|---|---|---|---|---|---|---|---|
| 1778075035 | 17.78° C | 99% | 1015.5 hPa | - | - | 0 W/m² | - |
| 1778074727 | 17.78° C | 99% | 1015.5 hPa | - | - | 0 W/m² | - |
| 1778074419 | 17.22° C | 99% | 1015.5 hPa | - | - | 0 W/m² | - |
| 1778074111 | 17.78° C | 99% | 1015.4 hPa | - | - | 0 W/m² | - |
| 1778073803 | 17.22° C | 99% | 1015.5 hPa | - | - | 0 W/m² | - |
| 1778073503 | 17.78° C | 99% | 1015.4 hPa | - | - | 0 W/m² | - |
| 1778073186 | 18.89° C | 99% | 1015.3 hPa | - | - | 0 W/m² | - |
| 1778072883 | 17.78° C | 99% | 1015.2 hPa | - | - | 1 W/m² | - |
| 1778072575 | 17.78° C | 99% | 1015.2 hPa | - | - | 1 W/m² | - |
| 1778072267 | 16.11° C | 99% | 1015.3 hPa | - | - | 9 W/m² | - |
| 1778071959 | 14.44° C | 99% | 1015.3 hPa | - | - | 1 W/m² | - |
| 1778071658 | 15° C | 99% | 1015.3 hPa | - | - | 0 W/m² | - |
| 1778071342 | 15° C | 99% | 1015.3 hPa | - | - | 0 W/m² | - |
| 1778071034 | 15° C | 99% | 1015.3 hPa | - | - | 0 W/m² | - |
| 1778070726 | 15° C | 99% | 1015.3 hPa | - | - | 0 W/m² | - |
| 1778070417 | 15.56° C | 99% | 1015.3 hPa | - | - | 0 W/m² | - |
| 1778070109 | 15.56° C | 99% | 1015.1 hPa | - | - | 0 W/m² | - |
| 1778069809 | 16.11° C | 99% | 1015.2 hPa | - | - | 0 W/m² | - |
| 1778069493 | 16.67° C | 99% | 1015 hPa | - | - | 0 W/m² | - |
| 1778069190 | 17.22° C | 99% | 1014.9 hPa | - | - | 0 W/m² | - |
| 1778068881 | 17.78° C | 99% | 1014.9 hPa | - | - | 0 W/m² | - |
| 1778068574 | 18.33° C | 99% | 1014.9 hPa | - | - | 4 W/m² | - |
| 1778068265 | 17.78° C | 99% | 1014.9 hPa | - | - | 16 W/m² | - |
| 1778067965 | 17.78° C | 99% | 1014.8 hPa | - | - | 38 W/m² | - |
| 1778067649 | 17.78° C | 99% | 1014.9 hPa | - | - | 1 W/m² | - |
* Rain since midnight (hover to see other rain measurements)
** Current wind speed in m/s (hover to see current wind gust speed)